Location: Waltman Observatory
(32.5145°N, 90.4450°W)
Time: 23:25:58
(UTC-05:00)

Amateur Radio Satellites - All Passes

Search period start: 30 April 2017 22:55
Search period end: 01 May 2017 22:55
Location: Waltman Observatory, 32.5145°N, 90.4450°W

Satellite Date Start Highest point End Downlink Frequencies (MHz)
Time Altitude Azimuth
UNISAT 6 30 Apr 23:07:15 23:11:35 87° 285° (WNW) 23:16:00 437.425
SRMSAT 30 Apr 23:13:15 23:15:57 13° 196° (SSW) 23:18:39 437.500
BEESAT 3 30 Apr 23:43:33 23:43:57 10° 253° (WSW) 23:44:21 437.485
BEESAT 2 30 Apr 23:50:32 23:53:49 24° 249° (WSW) 23:57:03 435.950
POLYITAN 1 30 Apr 23:59:29 00:02:36 20° 96° (E) 00:05:43 437.675
QB50P2 01 May 00:06:00 00:09:34 26° 97° (E) 00:13:08 145.880/145.840
VELOX 1 01 May 00:18:55 00:23:11 47° 74° (ENE) 00:27:28 145.980
NANOSAT C BR1 01 May 00:22:50 00:26:41 35° 99° (E) 00:30:31 145.865
TIGRISAT 01 May 00:23:14 00:25:10 13° 292° (WNW) 00:27:05 435.000
ESTCUBE 1 01 May 00:26:55 00:30:58 33° 262° (W) 00:35:04 437.505/2401.250
AIST 2D 01 May 00:28:11 00:31:42 68° 283° (WNW) 00:35:12 435.315
LO-87 01 May 00:29:50 00:31:03 11° 266° (W) 00:32:16 145.935 - 145.965
50 SAT 01 May 00:30:16 00:33:19 29° 73° (ENE) 00:36:22 437.505
FO-29 01 May 00:38:45 00:42:22 19° 292° (WNW) 00:46:13 435.910
SPROUT 01 May 00:45:18 00:49:34 88° 260° (W) 00:53:51 437.525
DUCHIFAT 1 01 May 00:49:43 00:53:53 71° 102° (ESE) 00:58:03 145.980
EO-79 01 May 00:53:28 00:57:41 82° 282° (WNW) 01:01:53 145.935-145.965
DX 1 01 May 00:55:12 00:59:20 43° 74° (ENE) 01:03:30 434.975-435.025
NO-84 01 May 01:11:39 01:12:52 12° 38° (NE) 01:14:04 435.350 FM
PCSat 01 May 01:22:11 01:27:34 77° 114° (ESE) 01:32:59 145.827
BUGSAT 1 01 May 01:32:11 01:36:11 65° 102° (ESE) 01:40:10 437.445
Gurwin Techsat 1B 01 May 01:34:36 01:35:50 11° 92° (E) 01:37:03 435.225
POLYITAN 1 01 May 01:34:51 01:38:17 25° 289° (WNW) 01:41:44 437.675
QB50P2 01 May 01:42:08 01:45:08 19° 290° (WNW) 01:48:08 145.880/145.840
UKube-1 01 May 01:48:10 01:52:26 61° 258° (WSW) 01:56:44 .
VELOX 1 01 May 01:58:05 01:59:48 12° 267° (W) 02:01:32 145.980
NANOSAT C BR1 01 May 01:59:43 02:02:03 15° 292° (WNW) 02:04:22 145.865
ITUPSAT 1 01 May 02:04:48 02:06:53 13° 66° (ENE) 02:09:00 437.325
50 SAT 01 May 02:05:17 02:06:16 11° 266° (W) 02:07:15 437.505
Oscar 19 01 May 02:30:23 02:35:37 83° 104° (ESE) 02:40:48 437.125/150
DX 1 01 May 02:33:47 02:35:41 13° 266° (W) 02:37:34 434.975-435.025
NO-84 01 May 02:47:52 02:50:27 31° 234° (SW) 02:53:01 435.350 FM
BEESAT 01 May 02:55:40 03:00:14 49° 73° (ENE) 03:04:48 436.000
AO-7 01 May 02:56:07 02:59:21 13° 92° (E) 03:02:33 .
PCSat 01 May 03:08:57 03:11:32 13° 310° (NW) 03:14:07 145.827
Gurwin Techsat 1B 01 May 03:10:52 03:16:10 70° 284° (WNW) 03:21:26 435.225
ITUPSAT 1 01 May 03:39:34 03:44:12 53° 259° (W) 03:48:51 437.325
YUBILEINY 01 May 03:41:44 03:49:47 44° 88° (E) 03:57:51 435.215
MOZHAYETS 4 01 May 03:43:04 03:47:35 76° 76° (ENE) 03:52:09
ITAMSAT 1 01 May 04:06:56 04:12:01 56° 101° (ESE) 04:17:05 435.822/435.867
BEESAT 01 May 04:36:03 04:38:12 13° 267° (W) 04:40:21 436.000
AO-7 01 May 04:44:35 04:52:57 85° 107° (ESE) 05:01:18 .
CUBESAT XI-V 01 May 04:47:13 04:51:46 60° 75° (ENE) 04:56:24 437.345
KKS-1 01 May 04:56:01 05:00:29 82° 76° (ENE) 05:04:58 437.445
STARS 01 May 05:13:52 05:18:08 51° 74° (ENE) 05:22:25 437.465
RS-15 01 May 05:25:17 05:35:07 32° 103° (ESE) 05:45:11 29.354- 29.394
SO-50 01 May 05:31:20 05:35:57 74° 298° (WNW) 05:40:33 436.795
Tancredo 1 01 May 05:34:12 05:36:53 27° 130° (SE) 05:39:33 437.200
YUBILEINY 01 May 05:39:03 05:46:36 33° 285° (WNW) 05:54:14 435.215
ITAMSAT 1 01 May 05:48:11 05:50:57 15° 295° (WNW) 05:53:42 435.822/435.867
XW-2D 01 May 06:23:13 06:26:05 20° 96° (E) 06:28:57 145.860 - 145.880
KAITUO 1B 01 May 06:27:58 06:30:30 17° 95° (E) 06:33:02 145.475/437.950
XW-2B 01 May 06:30:05 06:33:12 23° 96° (E) 06:36:19 145.730 - 145.750
ISS 01 May 06:34:18 06:37:33 69° 317° (NW) 06:40:48 437.550
AO-7 01 May 06:39:29 06:44:40 18° 303° (WNW) 06:49:53 .
XW-2C 01 May 06:41:54 06:45:26 34° 98° (E) 06:48:56 145.795 - 145.815
DOVE 4 01 May 06:43:49 06:48:12 65° 100° (E) 06:52:21 437.250
LilacSat-2 01 May 06:46:34 06:50:15 43° 99° (E) 06:53:56 437.200
STARS 01 May 06:53:49 06:54:41 10° 267° (W) 06:55:33 437.465
NUDT-PHONESAT 01 May 06:59:20 07:02:57 45° 100° (E) 07:06:32 437.300
XW-2F 01 May 07:03:18 07:07:06 68° 100° (E) 07:10:55 145.980 - 146.000
Tancredo 1 01 May 07:10:25 07:12:45 19° 324° (NW) 07:15:04 437.200
STRAND 1 01 May 07:23:57 07:28:54 53° 73° (ENE) 07:33:51 437.568
CUTE-I 01 May 07:30:09 07:35:28 81° 285° (WNW) 07:40:46 437.470
RS-15 01 May 07:34:46 07:46:39 66° 302° (WNW) 07:58:59 29.354- 29.394
CUTE 1.7 + AOD 2 01 May 07:40:52 07:44:10 21° 95° (E) 07:47:28 437.475
M-CUBED/EXP-1 PRIME 01 May 07:44:42 07:49:19 89° 78° (ENE) 07:54:00 437.505
SEEDS 01 May 07:51:23 07:54:17 18° 95° (E) 07:57:07 437.485
XW-2D 01 May 07:57:16 08:00:08 20° 288° (WNW) 08:03:00 145.860 - 145.880
KAITUO 1B 01 May 08:01:23 08:04:26 23° 288° (WNW) 08:07:28 145.475/437.950
CUBEBUG 2 01 May 08:03:44 08:06:32 17° 95° (E) 08:09:21 437.445
XW-2B 01 May 08:04:36 08:07:11 17° 289° (WNW) 08:09:46 145.730 - 145.750
HO-68 01 May 08:08:10 08:15:08 51° 101° (E) 08:22:05 435.675
XW-2C 01 May 08:17:41 08:19:15 12° 291° (WNW) 08:20:49 145.795 - 145.815
LilacSat-2 01 May 08:23:40 08:24:05 10° 292° (WNW) 08:24:29 437.200
AAUSAT CUBESAT 2 01 May 08:42:58 08:46:47 33° 98° (E) 08:50:33 437.432
XW-2A 01 May 08:55:26 08:58:24 29° 286° (WNW) 09:01:23 145.665 - 145.685
FO-29 01 May 09:04:28 09:06:01 11° 65° (ENE) 09:07:34 435.910
STRAND 1 01 May 09:05:47 09:08:18 14° 267° (W) 09:10:50 437.568
UWE-3 01 May 09:14:44 09:18:59 77° 100° (E) 09:23:22 435.000/436.395/437.385
CUTE 1.7 + AOD 2 01 May 09:16:24 09:19:53 25° 289° (WNW) 09:23:22 437.475
SEEDS 01 May 09:26:14 09:29:55 29° 288° (WNW) 09:33:35 437.485
PRISM 01 May 09:29:17 09:32:54 30° 72° (ENE) 09:36:33 437.425
CUBEBUG 2 01 May 09:39:27 09:43:07 30° 287° (WNW) 09:46:53 437.445
TIGRISAT 01 May 09:39:34 09:42:55 22° 71° (ENE) 09:46:13 435.000
O/OREOS (USA 219) 01 May 09:46:48 09:51:21 66° 290° (WNW) 09:55:57 437.305
RS-15 01 May 09:54:04 10:02:10 19° 328° (NNW) 10:10:22 29.354- 29.394
HO-68 01 May 09:56:43 10:02:25 26° 296° (WNW) 10:08:07 435.675
ZACube-1 01 May 09:58:24 10:02:37 57° 284° (WNW) 10:06:54 437.345
UNISAT 6 01 May 10:01:30 10:05:38 44° 75° (ENE) 10:09:44 437.425
AO-73 01 May 10:02:06 10:06:19 57° 284° (WNW) 10:10:37 145.935
Oscar 11 01 May 10:11:21 10:15:37 55° 284° (WNW) 10:19:52 .
DELFI C3 01 May 10:15:03 10:18:47 38° 98° (E) 10:22:29 145.870
PCSat 01 May 10:15:21 10:19:41 24° 56° (NE) 10:24:00 145.827
AAUSAT CUBESAT 2 01 May 10:19:27 10:21:54 15° 291° (WNW) 10:24:20 437.432
FO-29 01 May 10:44:15 10:50:35 81° 257° (WSW) 10:56:12 435.910
QB50P2 01 May 10:56:06 10:57:35 12° 67° (ENE) 10:59:04 145.880/145.840
AIST 2D 01 May 10:58:51 11:01:19 19° 72° (ENE) 11:03:48 435.315
PRISM 01 May 11:05:29 11:08:10 17° 265° (W) 11:10:51 437.425
AO-85 01 May 11:11:12 11:15:32 57° 115° (ESE) 11:19:35 145.980
NANOSAT C BR1 01 May 11:11:37 11:14:02 15° 69° (ENE) 11:16:26 145.865
OBJECT BX 01 May 11:12:29 11:15:59 42° 285° (WNW) 11:19:28 145.990 - 145.960
TIGRISAT 01 May 11:15:55 11:19:27 24° 263° (W) 11:22:57 435.000
DUCHIFAT 1 01 May 11:37:13 11:40:45 27° 72° (ENE) 11:44:17 145.980
UNISAT 6 01 May 11:40:57 11:42:29 12° 267° (W) 11:44:02 437.425
EO-79 01 May 11:41:12 11:45:06 38° 74° (ENE) 11:49:00 145.935-145.965
BEESAT 3 01 May 11:48:51 11:52:00 23° 111° (ESE) 11:55:11 437.485
DELFI C3 01 May 11:51:34 11:53:10 12° 292° (WNW) 11:54:45 145.870
PCSat 01 May 11:58:09 12:03:09 39° 251° (WSW) 12:08:07 145.827
LO-87 01 May 11:58:37 12:02:09 77° 101° (ESE) 12:05:40 145.935 - 145.965
BEESAT 2 01 May 12:02:20 12:03:11 11° 107° (ESE) 12:04:02 435.950
VELOX 1 01 May 12:15:23 12:17:15 12° 93° (E) 12:19:08 145.980
BUGSAT 1 01 May 12:17:42 12:21:02 24° 71° (ENE) 12:24:20 437.445
RS-15 01 May 12:20:01 12:22:28 11° 6° (N) 12:24:55 29.354- 29.394
POLYITAN 1 01 May 12:21:49 12:25:58 62° 259° (WSW) 12:30:08 437.675
ESTCUBE 1 01 May 12:23:17 12:27:50 72° 102° (ESE) 12:32:20 437.505/2401.250
QB50P2 01 May 12:28:52 12:32:54 45° 260° (W) 12:36:58 145.880/145.840
AIST 2D 01 May 12:32:03 12:34:23 17° 265° (W) 12:36:45 435.315
SPROUT 01 May 12:36:11 12:39:28 21° 96° (E) 12:42:43 437.525
NANOSAT C BR1 01 May 12:45:35 12:49:25 34° 262° (W) 12:53:15 145.865
DX 1 01 May 12:50:43 12:51:31 10° 93° (E) 12:52:19 434.975-435.025
Gurwin Techsat 1B 01 May 12:51:09 12:53:14 12° 64° (ENE) 12:55:19 435.225
AO-85 01 May 12:54:46 12:56:09 11° 309° (NW) 12:57:30 145.980
ISS 01 May 13:06:31 13:08:40 16° 34° (NNE) 13:10:48 437.550
DUCHIFAT 1 01 May 13:13:28 13:16:22 18° 265° (W) 13:19:15 145.980
EO-79 01 May 13:19:00 13:20:57 13° 266° (W) 13:22:55 145.935-145.965
BEESAT 3 01 May 13:26:24 13:29:29 22° 306° (NW) 13:32:35 437.485
50 SAT 01 May 13:30:20 13:33:46 61° 101° (ESE) 13:37:10 437.505
BEESAT 2 01 May 13:36:41 13:40:27 45° 301° (WNW) 13:44:18 435.950
Tancredo 1 01 May 13:38:28 13:41:25 42° 41° (NE) 13:44:22 437.200
UKube-1 01 May 13:39:57 13:43:44 29° 98° (E) 13:47:29 .
Oscar 19 01 May 13:42:28 13:47:36 76° 75° (ENE) 13:52:47 437.125/150
VELOX 1 01 May 13:49:41 13:53:52 43° 286° (WNW) 13:58:01 145.980
AO-7 01 May 13:51:15 13:54:59 14° 54° (NE) 13:58:43 .
BUGSAT 1 01 May 13:53:14 13:56:17 20° 264° (W) 13:59:20 437.445
YUBILEINY 01 May 13:59:15 14:04:22 16° 68° (ENE) 14:09:26 435.215
SO-50 01 May 14:07:22 14:11:13 27° 55° (NE) 14:15:04 436.795
SPROUT 01 May 14:11:51 14:15:15 24° 289° (WNW) 14:18:39 437.525
JUGNU 01 May 14:13:04 14:15:54 14° 165° (SSE) 14:18:45 437.505
DX 1 01 May 14:23:42 14:27:55 50° 286° (WNW) 14:32:05 434.975-435.025
Gurwin Techsat 1B 01 May 14:27:14 14:32:31 69° 258° (WSW) 14:37:49 435.225
RS-15 01 May 14:31:31 14:41:30 28° 41° (NE) 14:51:05 29.354- 29.394
ISS 01 May 14:42:11 14:45:17 40° 228° (SW) 14:48:21 437.550
BEESAT 01 May 15:01:16 15:04:30 18° 95° (E) 15:07:44 436.000
Tancredo 1 01 May 15:16:11 15:16:57 11° 234° (SW) 15:17:44 437.200
UKube-1 01 May 15:16:33 15:19:30 18° 291° (WNW) 15:22:27 .
ITAMSAT 1 01 May 15:20:18 15:25:19 54° 73° (ENE) 15:30:22 435.822/435.867
AO-7 01 May 15:38:08 15:46:24 78° 71° (ENE) 15:54:41 .
MOZHAYETS 4 01 May 15:43:05 15:46:54 25° 96° (E) 15:50:41
ITUPSAT 1 01 May 15:44:24 15:49:06 55° 101° (E) 15:53:47 437.325
SO-50 01 May 15:47:53 15:51:31 24° 249° (WSW) 15:55:09 436.795
YUBILEINY 01 May 15:53:17 16:02:05 84° 266° (W) 16:10:54 435.215
JUGNU 01 May 15:59:52 16:04:15 22° 174° (S) 16:08:39 437.505
NO-84 01 May 16:24:49 16:27:00 14° 123° (ESE) 16:29:06 435.350 FM
BEESAT 01 May 16:37:58 16:42:19 36° 288° (WNW) 16:46:40 436.000
RS-15 01 May 16:43:20 16:55:31 85° 245° (WSW) 17:07:02 29.354- 29.394
CUBESAT XI-V 01 May 16:49:03 16:52:38 22° 95° (E) 16:56:13 437.345
KKS-1 01 May 16:52:14 16:55:39 22° 96° (E) 16:59:02 437.445
ITAMSAT 1 01 May 17:02:23 17:05:01 14° 266° (W) 17:07:40 435.822/435.867
STARS 01 May 17:09:26 17:11:30 13° 94° (E) 17:13:33 437.465
CUTE-I 01 May 17:11:57 17:13:17 11° 63° (ENE) 17:14:36 437.470
MOZHAYETS 4 01 May 17:20:09 17:23:54 25° 289° (WNW) 17:27:39
ITUPSAT 1 01 May 17:24:19 17:26:24 13° 294° (WNW) 17:28:29 437.325
LilacSat-2 01 May 17:26:18 17:27:28 11° 68° (ENE) 17:28:38 437.200
SRMSAT 01 May 17:33:22 17:37:16 18° 168° (SSE) 17:41:11 437.500
AO-7 01 May 17:34:37 17:39:45 18° 265° (W) 17:44:55 .
NUDT-PHONESAT 01 May 17:36:51 17:37:39 11° 68° (ENE) 17:38:26 437.300
XW-2F 01 May 17:40:55 17:43:14 16° 70° (ENE) 17:45:34 145.980 - 146.000
DOVE 4 01 May 17:43:26 17:48:23 42° 74° (ENE) 17:53:15 437.250
JUGNU 01 May 17:48:11 17:52:39 23° 184° (S) 17:57:10 437.505
YUBILEINY 01 May 17:54:27 17:57:28 12° 282° (WNW) 18:00:28 435.215
NO-84 01 May 18:00:28 18:04:20 47° 313° (NW) 18:07:53 435.350 FM
CUBESAT XI-V 01 May 18:25:54 18:29:57 29° 289° (WNW) 18:33:59 437.345
KKS-1 01 May 18:28:27 18:32:06 26° 289° (WNW) 18:35:44 437.445
XW-2D 01 May 18:32:50 18:36:32 86° 255° (WSW) 18:40:18 145.860 - 145.880
HO-68 01 May 18:33:05 18:38:30 24° 63° (ENE) 18:43:56 435.675
KAITUO 1B 01 May 18:35:56 18:39:35 77° 77° (ENE) 18:43:17 145.475/437.950
XW-2B 01 May 18:39:56 18:43:39 71° 259° (W) 18:47:24 145.730 - 145.750
STARS 01 May 18:43:53 18:47:58 40° 287° (WNW) 18:52:02 437.465
CUTE-I 01 May 18:47:15 18:52:36 78° 258° (WSW) 18:57:56 437.470
XW-2C 01 May 18:52:18 18:55:52 45° 260° (W) 18:59:29 145.795 - 145.815
LilacSat-2 01 May 18:57:53 19:01:21 36° 262° (W) 19:04:51 437.200
RS-15 01 May 18:59:43 19:06:00 16° 262° (W) 19:12:11 29.354- 29.394
NUDT-PHONESAT 01 May 19:07:47 19:11:10 35° 262° (W) 19:14:33 437.300
XW-2F 01 May 19:14:05 19:17:08 24° 264° (W) 19:20:12 145.980 - 146.000
SRMSAT 01 May 19:21:09 19:25:51 24° 178° (S) 19:30:32 437.500
XW-2A 01 May 19:21:59 19:25:01 33° 75° (ENE) 19:28:03 145.665 - 145.685
DOVE 4 01 May 19:22:27 19:26:07 19° 266° (W) 19:29:44 437.250
AAUSAT CUBESAT 2 01 May 19:30:16 19:32:06 13° 68° (ENE) 19:33:56 437.432
JUGNU 01 May 19:37:44 19:41:03 15° 194° (SSW) 19:44:22 437.505
STRAND 1 01 May 19:39:31 19:43:46 26° 97° (E) 19:48:00 437.568
AO-85 01 May 19:47:55 19:49:53 13° 52° (NE) 19:51:54 145.980
O/OREOS (USA 219) 01 May 20:01:27 20:06:00 75° 254° (WSW) 20:10:30 437.305
CUTE 1.7 + AOD 2 01 May 20:03:22 20:07:31 63° 259° (W) 20:11:44 437.475
UWE-3 01 May 20:07:27 20:11:13 32° 73° (ENE) 20:14:57 435.000/436.395/437.385
SEEDS 01 May 20:12:19 20:16:30 80° 260° (W) 20:20:43 437.485
HO-68 01 May 20:18:44 20:25:42 56° 258° (WSW) 20:32:43 435.675
CUBEBUG 2 01 May 20:32:13 20:36:32 66° 259° (W) 20:40:45 437.445
ZACube-1 01 May 20:49:25 20:53:32 58° 76° (ENE) 20:57:36 437.345
AO-73 01 May 20:52:50 20:56:54 57° 76° (ENE) 21:00:57 145.935
DELFI C3 01 May 20:57:47 20:59:27 12° 68° (ENE) 21:01:06 145.870
Oscar 11 01 May 21:01:06 21:05:19 60° 76° (ENE) 21:09:34 .
M-CUBED/EXP-1 PRIME 01 May 21:03:00 21:06:49 54° 289° (WNW) 21:10:19 437.505
AAUSAT CUBESAT 2 01 May 21:03:14 21:07:08 40° 261° (W) 21:11:04 437.432
SRMSAT 01 May 21:10:04 21:14:26 21° 188° (S) 21:18:48 437.500
STRAND 1 01 May 21:18:30 21:22:50 29° 290° (WNW) 21:27:10 437.568
AO-85 01 May 21:26:32 21:30:25 45° 245° (WSW) 21:34:31 145.980
UWE-3 01 May 21:45:14 21:47:42 15° 265° (W) 21:50:09 435.000/436.395/437.385
OBJECT BX 01 May 21:45:37 21:48:55 34° 74° (ENE) 21:52:15 145.990 - 145.960
BEESAT 3 01 May 21:46:20 21:50:13 47° 59° (ENE) 21:54:02 437.485
BEESAT 2 01 May 21:58:48 22:02:07 24° 55° (NE) 22:05:23 435.950
UNISAT 6 01 May 21:59:01 22:01:07 13° 94° (E) 22:03:13 437.425
FO-29 01 May 21:59:44 22:02:19 13° 95° (E) 22:05:00 435.910
DELFI C3 01 May 22:30:07 22:33:49 38° 261° (W) 22:37:34 145.870
LO-87 01 May 22:31:24 22:33:32 15° 71° (ENE) 22:35:40 145.935 - 145.965
